Humidity-temperature Sensor

Selected Measurement Type: Relative Humidity

 
Relative Humidity [%]     6 entries per hour
Showing data from 9/12/2017 (00:00:00 Z) to 9/9/2017 (00:01:00 Z)
Previous Next [ Day | 3-Days | 7-Days ]
First Last
Prev [ Day | 3-Days | 7-Days ] Next
First Last

Start Time:     :
End Time:     :     
Time (in GMT) :00 :50 :40 :30 :20 :10
Previous Next [ Day | 3-Days | 7-Days ]
First Last
Prev [ Day | 3-Days | 7-Days ] Next
First Last


123 => good data
MM => data is determined as missing
-- => data not received/configured
Back to Top Back to Top
9/12/2017 00:00 to 23:10 77.17 79.04 79.86 80.47 77.12 75.94
9/11/2017 23:00 to 22:10 74.30 74.79 76.39 75.65 77.33 76.91
9/11/2017 22:00 to 21:10 75.92 76.24 75.46 75.61 75.12 75.71
9/11/2017 21:00 to 20:10 74.43 73.61 73.06 74.74 72.74 73.50
9/11/2017 20:00 to 19:10 74.30 74.13 74.32 73.71 74.60 74.91
9/11/2017 19:00 to 18:10 73.98 72.62 73.86 72.83 75.42 76.24
9/11/2017 18:00 to 17:10 78.22 78.32 78.51 78.91 79.95 80.64
9/11/2017 17:00 to 16:10 79.42 79.40 80.45 81.21 78.47 78.60
9/11/2017 16:00 to 15:10 80.45 81.67 77.27 79.90 79.95 79.86
9/11/2017 15:00 to 14:10 77.35 76.11 75.80 74.89 76.70 76.87
9/11/2017 14:00 to 13:10 74.62 75.19 78.01 81.27 84.94 84.90
9/11/2017 13:00 to 12:10 85.95 75.40 73.54 76.41 76.72 75.90
9/11/2017 12:00 to 11:10 78.03 77.97 77.75 78.96 77.92 77.97
9/11/2017 11:00 to 10:10 77.67 81.78 81.23 79.99 79.90 80.51
9/11/2017 10:00 to 9:10 80.28 82.87 81.46 87.02 83.02 80.20
9/11/2017 09:00 to 8:10 80.41 80.58 79.31 80.01 79.88 80.26
9/11/2017 08:00 to 7:10 80.20 79.86 80.13 80.05 80.98 79.90
9/11/2017 07:00 to 6:10 81.42 81.36 81.44 82.56 82.24 83.02
9/11/2017 06:00 to 5:10 -- -- -- -- -- --
9/11/2017 05:00 to 4:10 85.80 89.72 89.76 83.38 81.21 81.10
9/11/2017 04:00 to 3:10 79.90 79.50 79.67 80.24 79.86 80.72
9/11/2017 03:00 to 2:10 80.64 81.23 81.84 80.39 82.49 82.83
9/11/2017 02:00 to 1:10 81.10 79.04 82.83 81.48 78.87 78.24
9/11/2017 01:00 to 0:10 77.29 83.78 72.55 71.31 72.93 73.46
9/11/2017 00:00 to 23:10 74.74 75.52 77.04 77.12 75.69 77.80
9/10/2017 23:00 to 22:10 79.69 80.16 80.24 78.13 72.70 72.89
9/10/2017 22:00 to 21:10 72.22 72.89 73.46 72.49 72.43 70.43
9/10/2017 21:00 to 20:10 71.06 70.93 69.25 70.97 70.93 72.01
9/10/2017 20:00 to 19:10 73.63 74.60 76.51 76.74 76.07 75.48
9/10/2017 19:00 to 18:10 79.73 78.91 81.31 81.06 81.84 81.67
9/10/2017 18:00 to 17:10 80.58 80.94 81.88 82.24 85.11 86.69
9/10/2017 17:00 to 16:10 86.22 86.10 85.86 83.53 87.51 86.77
9/10/2017 16:00 to 15:10 85.48 84.01 82.60 79.15 79.61 78.79
9/10/2017 15:00 to 14:10 78.37 77.04 74.68 81.08 82.98 82.05
9/10/2017 14:00 to 13:10 80.89 80.20 79.02 80.13 82.75 85.21
9/10/2017 13:00 to 12:10 85.53 85.15 85.82 84.41 85.65 85.42
9/10/2017 12:00 to 11:10 85.93 87.19 88.29 89.80 91.07 90.83
9/10/2017 11:00 to 10:10 90.33 88.71 88.75 89.51 88.43 86.18
9/10/2017 10:00 to 9:10 87.53 81.04 82.77 84.35 84.49 85.06
9/10/2017 09:00 to 8:10 85.57 87.00 85.70 85.11 83.15 78.64
9/10/2017 08:00 to 7:10 78.30 77.90 77.82 77.42 75.44 75.00
9/10/2017 07:00 to 6:10 76.11 74.76 79.65 78.77 82.85 80.62
9/10/2017 06:00 to 5:10 84.05 82.77 83.50 83.21 81.46 82.92
9/10/2017 05:00 to 4:10 84.43 84.98 84.07 83.82 82.87 83.72
9/10/2017 04:00 to 3:10 85.51 86.31 89.23 90.75 91.97 90.60
9/10/2017 03:00 to 2:10 -- -- -- -- -- --
9/10/2017 02:00 to 1:10 87.15 86.37 85.95 85.36 86.03 86.73
9/10/2017 01:00 to 0:10 87.13 87.19 88.05 88.96 88.41 89.00
9/10/2017 00:00 to 23:10 89.95 90.31 91.13 91.26 91.05 91.15
9/9/2017 23:00 to 22:10 91.32 92.08 91.76 88.81 73.88 77.04
9/9/2017 22:00 to 21:10 77.75 77.84 77.78 78.34 77.73 76.72
9/9/2017 21:00 to 20:10 75.61 73.25 71.77 71.46 75.19 75.33
9/9/2017 20:00 to 19:10 77.19 77.97 78.16 77.69 77.21 77.65
9/9/2017 19:00 to 18:10 77.59 79.44 82.07 82.01 80.75 80.28
9/9/2017 18:00 to 17:10 79.61 77.21 76.89 77.17 78.62 81.48
9/9/2017 17:00 to 16:10 84.81 85.93 83.74 82.98 79.17 79.19
9/9/2017 16:00 to 15:10 79.38 79.63 79.00 81.02 81.34 79.02
9/9/2017 15:00 to 14:10 77.69 76.03 71.48 72.89 74.74 75.61
9/9/2017 14:00 to 13:10 79.04 79.31 77.38 75.71 76.01 78.05
9/9/2017 13:00 to 12:10 82.89 86.18 82.09 79.31 79.69 80.20
9/9/2017 12:00 to 11:10 80.24 78.07 78.51 79.63 78.79 73.75
9/9/2017 11:00 to 10:10 75.78 77.65 76.91 75.48 73.06 74.39
9/9/2017 10:00 to 9:10 74.15 73.90 73.82 76.28 76.85 77.33
9/9/2017 09:00 to 8:10 76.49 76.47 76.41 74.22 73.84 74.93
9/9/2017 08:00 to 7:10 76.77 76.53 76.26 76.01 76.01 74.62
9/9/2017 07:00 to 6:10 73.12 70.87 70.91 72.03 71.86 71.58
9/9/2017 06:00 to 5:10 71.12 70.21 72.17 71.27 70.91 71.39
9/9/2017 05:00 to 4:10 69.10 69.71 68.85 68.97 69.37 70.72
9/9/2017 04:00 to 3:10 68.47 70.13 69.73 71.10 68.57 68.17
9/9/2017 03:00 to 2:10 68.21 66.63 67.60 70.32 68.19 68.64
9/9/2017 02:00 to 1:10 68.66 70.00 68.61 68.19 68.26 69.41
9/9/2017 01:00 to 0:10 68.68 68.93 70.15 69.46 69.01 69.22